Emerado, ND

1:27 AM CST on December 06, 2016 (GMT -0600)
Grand Forks International

Weather History for KGFK - June, 2013

Change the Weather History Date:

Sunday, June 2, 2013

  Actual Average Record
Temperature  
Mean Temperature 52 °F 60 °F  
Max Temperature 63 °F 73 °F 95 °F (1948)
Min Temperature 40 °F 48 °F 31 °F (1946)
Degree Days  
Heating Degree Days 13 6  
Month to date heating degree days 26 12  
Since 1 June heating degree days 26 12  
Since 1 July heating degree days 9914 9424  
Cooling Degree Days 0 1  
Month to date cooling degree days 0 2  
Year to date cooling degree days 9 19  
Since 1 June cooling degree days 0 2  
Growing Degree Days 1 (Base 50)    
Moisture  
Dew Point 41 °F    
Average Humidity 68    
Maximum Humidity 96    
Minimum Humidity 39    
Precipitation  
Precipitation 0.00 in 0.10 in 1.52 in (2014)
Month to date precipitation T 0.20  
Year to date precipitation 8.17 5.92  
Snow  
Snow 0.00 in 0.00 in - ()
Month to date snowfall 0.0 0.0  
Since 1 June snowfall 0.0 0.0  
Since 1 July snowfall 50.2 47.4  
Snow Depth 0.00 in    
Sea Level Pressure  
Sea Level Pressure 30.07 in    
Wind  
Wind Speed 8 mph (NNW)    
Max Wind Speed 13 mph    
Max Gust Speed 17 mph    
Visibility 10 miles    
Events      
T = Trace of Precipitation, MM = Missing Value Source: NWS Daily Summary

Daily Weather History Graph

Daily Weather History Graph

Search for Another Location

Airport or City:

Trip Planner

Search our weather history database for the weather conditions in past years. The results will help you decide how hot, cold, wet, or windy it might be!

Date:

Astronomy

Jun. 02, 2013 Rise Set
Actual Time 5:32 AM CDT 9:21 PM CDT
Civil Twilight 4:52 AM CDT 10:01 PM CDT
Nautical Twilight 3:58 AM CDT 10:55 PM CDT
Astronomical Twilight 2:38 AM CDT 12:17 AM CDT
Moon 2:24 AM CDT (6/2) 3:31 PM CDT (6/2)
Length of Visible Light 17h 08m
Length of Day
15h 48m
Waning Crescent, 30% of the Moon is Illuminated
Jun 2
Waning Crescent
Jun 8
New
Jun 16
First Quarter
Jun 23
Full
Jun 29
Last Quarter

Hourly Weather History & Observations

Time (CDT) Temp. Windchill Dew Point Humidity Pressure Visibility Wind Dir Wind Speed Gust Speed Precip Events Conditions
12:53 AM 45.0 °F 40.6 °F 43.0 °F 93% 30.09 in 10.0 mi NW 8.1 mph - N/A   Clear
1:53 AM 43.0 °F 38.8 °F 41.0 °F 93% 30.09 in 10.0 mi NW 6.9 mph - N/A   Clear
2:53 AM 41.0 °F 37.1 °F 39.9 °F 96% 30.09 in 10.0 mi WNW 5.8 mph - N/A   Clear
3:53 AM 39.9 °F 35.1 °F 37.9 °F 93% 30.09 in 10.0 mi NW 6.9 mph - N/A   Clear
4:53 AM 41.0 °F 36.4 °F 37.9 °F 89% 30.09 in 10.0 mi NW 6.9 mph - N/A   Clear
5:53 AM 39.9 °F 34.5 °F 37.9 °F 93% 30.11 in 10.0 mi NW 8.1 mph - N/A   Partly Cloudy
6:53 AM 43.0 °F 37.7 °F 39.0 °F 86% 30.11 in 10.0 mi NW 9.2 mph - N/A   Scattered Clouds
7:53 AM 45.0 °F 40.1 °F 39.9 °F 82% 30.11 in 10.0 mi North 9.2 mph - N/A   Mostly Cloudy
8:53 AM 48.0 °F - 41.0 °F 77% 30.12 in 10.0 mi NNW 8.1 mph - N/A   Partly Cloudy
9:53 AM 51.1 °F - 42.1 °F 71% 30.12 in 10.0 mi NW 10.4 mph - N/A   Partly Cloudy
10:53 AM 54.0 °F - 44.1 °F 69% 30.11 in 10.0 mi NNW 8.1 mph - N/A   Partly Cloudy
11:53 AM 55.9 °F - 42.1 °F 60% 30.10 in 10.0 mi North 10.4 mph 17.3 mph N/A   Scattered Clouds
12:53 PM 59.0 °F - 41.0 °F 51% 30.09 in 10.0 mi NNE 4.6 mph - N/A   Mostly Cloudy
1:53 PM 59.0 °F - 41.0 °F 51% 30.08 in 10.0 mi North 10.4 mph - N/A   Scattered Clouds
2:53 PM 60.1 °F - 39.9 °F 47% 30.07 in 10.0 mi North 9.2 mph - N/A   Scattered Clouds
3:53 PM 61.0 °F - 39.9 °F 46% 30.06 in 10.0 mi NW 8.1 mph - N/A   Scattered Clouds
4:53 PM 62.1 °F - 37.0 °F 39% 30.04 in 10.0 mi NNE 6.9 mph - N/A   Mostly Cloudy
5:53 PM 62.1 °F - 37.9 °F 41% 30.03 in 10.0 mi NW 8.1 mph - N/A   Mostly Cloudy
6:53 PM 63.0 °F - 39.0 °F 41% 30.02 in 10.0 mi NNW 9.2 mph - N/A   Mostly Cloudy
7:53 PM 60.1 °F - 39.9 °F 47% 30.02 in 10.0 mi North 6.9 mph - N/A   Mostly Cloudy
8:53 PM 55.9 °F - 43.0 °F 62% 30.02 in 10.0 mi NNW 5.8 mph - N/A   Mostly Cloudy
9:53 PM 53.1 °F - 43.0 °F 69% 30.03 in 10.0 mi NW 5.8 mph - N/A   Mostly Cloudy
10:53 PM 50.0 °F - 44.1 °F 80% 30.04 in 10.0 mi WNW 5.8 mph - N/A   Mostly Cloudy
11:53 PM 48.9 °F - 42.1 °F 77% 30.05 in 10.0 mi NW 5.8 mph - N/A   Clear